Location: Street
(51.1247°N, 2.7429°W)
Time: 10:11:25
(UTC+00:00)

Tiros 1 - Pass Details

Date: 26 November 2020
Orbit: 630 x 663 km, 48.4° (Epoch: 21 January)

Event Time Altitude Azimuth Distance (km) Brightness Sun altitude
Rises 22:20:56 0° 279° (W) 2,974 - -54.5°
Reaches altitude 10° 22:23:49 10° 262° (W) 2,053 - -54.8°
Maximum altitude 22:27:10 19° 217° (SW) 1,517 - -55.1°
Drops below altitude 10° 22:30:29 10° 171° (S) 2,030 - -55.4°
Sets 22:33:20 0° 154° (SSE) 2,929 - -55.7°
